This demonstration page uses our WeatherBlox Daily Observations layout. Learn more.

Left ArrowRight Arrow

Hourly Observations for May 16, 2021

Temp ( °F °C ) Dew Point ( °F °C ) Humidity (%) Winds ( mph kmh ) Pressure ( in mb ) Visibility ( mi km ) Precip ( " mm )
12:51 am 00:51 Clear 73 22.8 24 -4.4 16 16 WNW 8 13 29.70 1006 10 16 N/A
1:51 am 01:51 Clear 70 21.1 23 -5 17 17 W 8 13 29.70 1006 10 16 N/A
2:51 am 02:51 Clear 69 20.6 24 -4.4 18 18 ESE 5 7 29.72 1007 10 16 N/A
3:51 am 03:51 Clear 62 16.7 24 -4.4 23 23 ESE 7 11 29.75 1007 10 16 N/A
4:51 am 04:51 Clear 65 18.3 24 -4.4 21 21 E 10 17 29.75 1007 10 16 N/A
5:51 am 05:51 Sunny 64 17.8 25 -3.9 23 23 ENE 6 9 29.76 1008 10 16 N/A
6:51 am 06:51 Sunny 73 22.8 26 -3.3 17 17 NNE 6 9 29.77 1008 10 16 N/A
7:51 am 07:51 Sunny 76 24.4 31 -0.6 19 19 ENE 8 13 29.78 1008 10 16 N/A
8:51 am 08:51 Sunny 79 26.1 30 -1.1 17 17 VRB 3 6 29.79 1009 10 16 N/A
9:51 am 09:51 Sunny 80 26.7 28 -2.2 15 15 S 7 11 29.78 1009 10 16 N/A
10:51 am 10:51 Sunny 81 27.2 26 -3.3 13 13 N N/A 29.77 1008 10 16 N/A
11:51 am 11:51 Sunny 83 28.3 26 -3.3 12 12 VRB 5 7 29.74 1007 10 16 N/A
12:51 pm 12:51 Sunny 86 30 20 -6.7 9 9 N N/A 29.72 1006 10 16 N/A
1:51 pm 13:51 Sunny 88 31.1 17 -8.3 7 7 undefined N/A 29.68 1005 10 16 N/A
2:51 pm 14:51 Sunny 88 31.1 16 -8.9 7 7 SW 5 7 29.66 1004 10 16 N/A
3:51 pm 15:51 Sunny 88 31.1 17 -8.3 7 7 VRB 5 7 29.65 1004 10 16 N/A
4:51 pm 16:51 Sunny 89 31.7 17 -8.3 7 7 VRB 6 9 29.62 1003 10 16 N/A
5:51 pm 17:51 Sunny 89 31.7 15 -9.4 6 6 SW 13 20 29.61 1003 10 16 N/A
6:51 pm 18:51 Sunny 86 30 18 -7.8 8 8 WSW 15 24 29.61 1003 10 16 N/A
7:51 pm 19:51 Clear 82 27.8 17 -8.3 9 9 W 15 24 29.63 1004 10 16 N/A
8:51 pm 20:51 Clear 79 26.1 23 -5 12 12 W 23 37 29.66 1004 10 16 N/A
9:51 pm 21:51 Clear 76 24.4 29 -1.7 18 18 WNW 18 30 29.68 1005 10 16 N/A
10:51 pm 22:51 Clear 74 23.3 30 -1.1 20 20 WNW 23 37 29.68 1005 10 16 N/A
11:51 pm 23:51 Clear 73 22.8 30 -1.1 20 20 WNW 18 30 29.70 1006 10 16 N/A

Powered by AerisWeather